User: anonymous   Login
Location: Unspecified
(0.0000°N, 0.0000°E)
Time: 06:20:48
(UTC+00:00)
Language:

ATS 3 - Orbit

View from above orbital plane
View from above orbital plane
View from above satellite
View from above satellite

Ground track
Ground track

The orbit data is extracted from the following two-line orbital elements,

1  3029U 67111A   18348.57520485 -.00000078  00000-0  00000+0 0  9995
2  3029   3.6141 293.2221 0013848 127.8183 124.0281  1.00272005187131
Epoch (UTC): 14 December 2018 13:48:17
Eccentricity: 0.0013848
inclination: 3.6141°
perigee height: 35728 km
apogee height: 35844 km
right ascension of ascending node: 293.2221°
argument of perigee: 127.8183°
revolutions per day: 1.00272005
mean anomaly at epoch: 124.0281°
orbit number at epoch: 18713

The dashed part of the orbit path shows where the satellite is in the earth's shadow,  

DLR